EW2701 Weather Reports


time (UTC)temp
C
wind
direction
speed
KPH
gust
KPH
rain 1hr
cm
rain 24hr
cm
rain mn
cm
humidity
%
barometer
mb
20260504081530 10 210 0.0 0.0 0.00 0.00 0.00 46 1014.0
20260504050018 12 208 0.0 0.0 0.00 0.00 0.00 57 1015.4
20260504044515 12 208 0.0 0.0 0.00 0.00 0.00 58 1015.6
20260504043019 12 208 0.0 0.0 0.00 0.00 0.00 59 1015.5
20260504041506 12 208 0.0 0.0 0.00 0.00 0.00 60 1015.6
20260504040003 12 208 0.0 0.0 0.00 0.00 0.00 62 1015.6
20260504034632 13 208 0.0 0.0 0.00 0.00 0.00 62 1015.6
20260504033055 13 208 0.0 0.0 0.00 0.00 0.00 64 1015.6
20260504031549 13 208 0.0 0.0 0.00 0.00 0.00 66 1015.5
20260504024541 14 208 0.0 0.0 0.00 0.00 0.00 69 1015.2
20260504023036 14 208 0.0 0.0 0.00 0.00 0.00 68 1015.1
20260504021531 15 208 0.0 0.0 0.00 0.00 0.00 68 1015.1
20260504020028 15 208 0.0 0.0 0.00 0.00 0.00 69 1014.9
20260504014524 15 233 0.0 0.0 0.00 0.00 0.00 70 1014.7
20260504013025 16 233 0.0 0.0 0.00 0.00 0.00 70 1014.6
20260504011515 16 233 0.0 0.0 0.00 0.00 0.00 68 1014.6
20260504010010 17 233 0.0 0.0 0.00 0.00 0.00 68 1014.6
20260504004506 17 233 0.0 0.0 0.00 0.00 0.00 65 1014.4
20260504003001 18 233 0.0 0.0 0.00 0.00 0.00 63 1014.2
20260504001607 19 233 0.0 0.0 0.00 0.00 0.00 64 1014.1
20260504000057 20 214 0.0 0.0 0.00 0.00 0.00 57 1014.2
20260503234549 20 220 0.0 0.0 0.00 0.00 0.00 58 1014.2
20260503233043 21 217 0.0 0.0 0.00 0.00 0.00 54 1014.2
20260503231540 22 221 0.0 0.0 0.00 0.00 0.00 50 1014.2
20260503230041 22 179 0.0 0.0 0.00 0.00 0.00 51 1014.3
20260503224532 23 206 0.0 0.0 0.00 0.00 0.00 44 1014.2
20260503223026 25 25 0.0 0.0 0.00 0.00 0.00 41 1014.3
20260503221522 25 308 0.0 0.0 0.00 0.00 0.00 36 1014.5
20260503220018 25 329 0.0 0.0 0.00 0.00 0.00 36 1014.6
20260503214514 25 225 0.0 0.0 0.00 0.00 0.00 35 1014.6
20260503213010 25 295 0.0 0.0 0.00 0.00 0.00 38 1014.9
20260503211505 25 319 0.0 0.0 0.00 0.00 0.00 41 1015.1
20260503210101 25 41 0.0 0.0 0.00 0.00 0.00 37 1015.1
20260503204602 25 321 0.0 0.0 0.00 0.00 0.00 33 1015.4
20260503203052 25 44 0.0 0.0 0.00 0.00 0.00 36 1015.6
20260503201548 25 18 0.0 0.0 0.00 0.00 0.00 41 1016.0
20260503200043 25 293 0.0 0.0 0.00 0.00 0.00 40 1016.2
20260503194542 25 280 0.0 0.0 0.00 0.00 0.00 40 1016.5
20260503193036 24 308 0.0 0.0 0.00 0.00 0.00 38 1016.7
20260503191530 24 290 0.0 0.0 0.00 0.00 0.00 37 1016.8
20260503190041 24 307 0.0 0.0 0.00 0.00 0.00 39 1017.0
20260503184522 23 239 0.0 0.0 0.00 0.00 0.00 37 1017.2
20260503183017 23 94 0.0 0.0 0.00 0.00 0.00 37 1017.2
20260503181513 23 303 0.0 0.0 0.00 0.00 0.00 40 1017.6
20260503180011 23 1 0.0 0.0 0.00 0.00 0.00 38 1017.8
20260503174505 23 330 0.0 0.0 0.00 0.00 0.00 44 1018.2
20260503173115 22 171 0.0 0.0 0.00 0.00 0.00 40 1018.3
20260503171555 23 339 0.0 0.0 0.00 0.00 0.00 37 1018.6
20260503130109 11 338 0.0 0.0 0.00 0.00 0.00 61 1017.8